星链-35332(STARLINK-35332)

导读 | 豆包AI

STARLINK-35332是美国SpaceX公司星链星座的一颗低轨互联网卫星,于2025年10月7日发射入轨。星链计划旨在构建全球覆盖的巨型低轨卫星互联网,为全球用户提供高速宽带服务,单颗卫星设计寿命超过5年,运行在近地轨道,属于星链大规模组网部署中的一员,助力实现全球无缝天基互联网覆盖,也引发了轨道资源与天文观测等相关讨论。

基本信息
目录编号:
65887
目录名称:
STARLINK-35332
国际标识:
2025-224F
轨道中心:
EARTH
卫星名称:
星链-35332
卫星全名:
星链-35332(STARLINK-35332)
卫星状态:
在轨 (已飞行204 天)
发射日期:
2025-10-07 UTC
国别 :
美国 (US)
星等 :
--
轨道信息
数据来源 国际轨道数据
星历时间: 2026-04-29T06:00:02+0800
9小时前
查看轨道信息
半长轴: 6840.945km
偏心率: 0.0001993
轨道倾角: 53.158°
近地点辐角 106.146°
升交点赤经 137.608°
平近点角 141.526°
近地点: 461.444km
远地点: 464.172km
周期: 93.850分钟
每日圈数: 15.34365
详细信息
固有亮度:
5
最大亮度:
2.5
卫星平台:
Starlink V1.0
覆盖范围:
全球
运营商:
太空探索技术公司
运营商所在国:
美国
制造商(研发单位):
太空探索技术公司
制造商所在国:
美国
使用方式:
暂无
卫星简介
Starlink 计划是 SpaceX 推出的全球卫星互联网项目,通过发射低轨道卫星,为全球尤其是偏远地区提供高速、低延迟的互联网服务。自 2019 年起,Starlink 已部署数千颗卫星,旨在缩小全球数字鸿沟,推动互联网普及。该项目还为军事、航空等行业提供通信支持,带来广泛经济效益。
2D轨道图
3D轨道图
轨道高度分析图
轨道倾角分析图
轨道综合分析图
查看轨道综合分析图